VIV3205 MMMY-MMGL

Flight info

Callsign VIV3205
Flight time 1h 5m
Altitude 36000
Route KERG1A/12 KERGA UT44 MEZCA MEZCA1B
Aircraft A320/M-SDE3FGHIRWY/LB1

Departure

Time 2026-04-22 02:57
Airport Monterrey International Airport (MMMY)

Arrival

Time 2026-04-22 04:03
Airport Guadalajara International Airport (MMGL)
Time Latitude Longitude Altitude Speed Heading
2026-04-22 02:25 25.77892 -100.11527 1331 ft 0 kts 122°
2026-04-22 02:43 25.77893 -100.11529 1331 ft 3 kts 122°
2026-04-22 02:43 25.77904 -100.11555 1331 ft 4 kts 97°
2026-04-22 02:43 25.77901 -100.11581 1333 ft 4 kts 40°
2026-04-22 02:44 25.77896 -100.11585 1334 ft 0 kts 31°
2026-04-22 02:49 25.77897 -100.11585 1334 ft 0 kts 31°
2026-04-22 02:50 25.77926 -100.11566 1331 ft 12 kts 31°
2026-04-22 02:50 25.78005 -100.11512 1331 ft 13 kts 31°
2026-04-22 02:50 25.78027 -100.11497 1331 ft 0 kts 31°
2026-04-22 02:50 25.78029 -100.11496 1331 ft 1 kts 31°
2026-04-22 02:51 25.78036 -100.11491 1331 ft 0 kts 31°
2026-04-22 02:51 25.78037 -100.11491 1331 ft 1 kts 31°
2026-04-22 02:52 25.78038 -100.11490 1331 ft 1 kts 31°
2026-04-22 02:52 25.78039 -100.11489 1331 ft 0 kts 31°
2026-04-22 02:52 25.78040 -100.11489 1331 ft 0 kts 31°
2026-04-22 02:52 25.78040 -100.11488 1331 ft 0 kts 31°
2026-04-22 02:53 25.78041 -100.11488 1331 ft 0 kts 31°
2026-04-22 02:53 25.78043 -100.11487 1331 ft 2 kts 31°
2026-04-22 02:53 25.78063 -100.11491 1331 ft 5 kts 319°
2026-04-22 02:54 25.78101 -100.11554 1331 ft 11 kts 301°
2026-04-22 02:54 25.78146 -100.11636 1331 ft 13 kts 301°
2026-04-22 02:54 25.78197 -100.11731 1331 ft 15 kts 301°
2026-04-22 02:54 25.78252 -100.11807 1331 ft 10 kts 351°
2026-04-22 02:55 25.78320 -100.11771 1331 ft 12 kts 29°
2026-04-22 02:55 25.78398 -100.11722 1331 ft 14 kts 30°
2026-04-22 02:55 25.78410 -100.11711 1331 ft 0 kts 57°
2026-04-22 02:55 25.78405 -100.11701 1331 ft 3 kts 112°
2026-04-22 02:56 25.78392 -100.11671 1331 ft 5 kts 118°
2026-04-22 02:56 25.78390 -100.11666 1331 ft 0 kts 118°
2026-04-22 02:56 25.78353 -100.11599 1331 ft 39 kts 122°
2026-04-22 02:57 25.78086 -100.11121 1331 ft 103 kts 122°
2026-04-22 02:57 25.77621 -100.10280 1333 ft 150 kts 121°
2026-04-22 02:57 25.77078 -100.09260 1864 ft 150 kts 117°
2026-04-22 02:57 25.76555 -100.08253 2453 ft 151 kts 122°
2026-04-22 02:58 25.75974 -100.07210 2881 ft 169 kts 122°
2026-04-22 02:58 25.75311 -100.06029 3247 ft 191 kts 123°
2026-04-22 02:58 25.74568 -100.04700 3607 ft 213 kts 123°
2026-04-22 02:58 25.73754 -100.03239 4084 ft 232 kts 123°
2026-04-22 02:59 25.72887 -100.01677 4735 ft 247 kts 123°
2026-04-22 02:59 25.71958 -100.00001 5397 ft 259 kts 123°
2026-04-22 02:59 25.70816 -99.98437 6172 ft 266 kts 145°
2026-04-22 02:59 25.69080 -99.97704 6904 ft 273 kts 172°
2026-04-22 03:00 25.67160 -99.97619 7640 ft 280 kts 182°
2026-04-22 03:00 25.65200 -99.97778 8378 ft 285 kts 186°
2026-04-22 03:00 25.63202 -99.97985 9110 ft 291 kts 187°
2026-04-22 03:00 25.61160 -99.98164 9841 ft 297 kts 186°
2026-04-22 03:01 25.59071 -99.98290 10460 ft 306 kts 185°
2026-04-22 03:01 25.56863 -99.98372 10657 ft 329 kts 184°
2026-04-22 03:01 25.54502 -99.98420 10928 ft 347 kts 183°
2026-04-22 03:01 25.52098 -99.98440 11494 ft 353 kts 183°
2026-04-22 03:02 25.49632 -99.98450 12139 ft 356 kts 184°
2026-04-22 03:02 25.47144 -99.98459 12805 ft 359 kts 184°
2026-04-22 03:02 25.44630 -99.98468 13463 ft 362 kts 184°
2026-04-22 03:02 25.42099 -99.98479 14094 ft 365 kts 185°
2026-04-22 03:03 25.39561 -99.98493 14686 ft 367 kts 185°
2026-04-22 03:03 25.36999 -99.98511 15294 ft 369 kts 185°
2026-04-22 03:03 25.34425 -99.98547 15908 ft 371 kts 186°
2026-04-22 03:03 25.31835 -99.98642 16527 ft 372 kts 187°
2026-04-22 03:04 25.29239 -99.98775 17151 ft 374 kts 187°
2026-04-22 03:04 25.26634 -99.98923 17756 ft 377 kts 188°
2026-04-22 03:04 25.24000 -99.99067 18369 ft 379 kts 187°
2026-04-22 03:04 25.21353 -99.99205 18887 ft 382 kts 187°
2026-04-22 03:05 25.18682 -99.99339 19413 ft 386 kts 188°
2026-04-22 03:05 25.15987 -99.99471 19898 ft 390 kts 188°
2026-04-22 03:05 25.13272 -99.99600 20065 ft 389 kts 187°
2026-04-22 03:05 25.10576 -99.99723 20119 ft 390 kts 187°
2026-04-22 03:06 25.07861 -99.99847 20118 ft 391 kts 187°
2026-04-22 03:06 25.05144 -99.99970 20120 ft 390 kts 187°
2026-04-22 03:06 25.03346 -100.00052 20122 ft 389 kts 187°
2026-04-22 03:07 24.97074 -100.00407 20972 ft 394 kts 193°
2026-04-22 03:07 24.94409 -100.01046 21476 ft 391 kts 203°
2026-04-22 03:07 24.91910 -100.02187 22001 ft 387 kts 212°
2026-04-22 03:07 24.89583 -100.03690 22497 ft 388 kts 216°
2026-04-22 03:08 24.87258 -100.05221 22971 ft 391 kts 216°
2026-04-22 03:08 24.84914 -100.06758 23380 ft 394 kts 216°
2026-04-22 03:08 24.82549 -100.08302 23845 ft 396 kts 216°
2026-04-22 03:08 24.80165 -100.09851 24262 ft 398 kts 216°
2026-04-22 03:09 24.77775 -100.11405 24679 ft 400 kts 216°
2026-04-22 03:09 24.75369 -100.12971 25082 ft 402 kts 216°
2026-04-22 03:09 24.72989 -100.14518 25476 ft 404 kts 216°
2026-04-22 03:09 24.70540 -100.16112 25884 ft 405 kts 216°
2026-04-22 03:10 24.68106 -100.17696 26287 ft 408 kts 216°
2026-04-22 03:10 24.65692 -100.19266 26691 ft 410 kts 216°
2026-04-22 03:10 24.63229 -100.20871 27078 ft 412 kts 216°
2026-04-22 03:10 24.60758 -100.22478 27467 ft 414 kts 216°
2026-04-22 03:11 24.58271 -100.24093 27851 ft 416 kts 216°
2026-04-22 03:11 24.55772 -100.25715 28249 ft 418 kts 216°
2026-04-22 03:11 24.53261 -100.27347 28645 ft 420 kts 216°
2026-04-22 03:11 24.50726 -100.28993 29037 ft 422 kts 216°
2026-04-22 03:12 24.48189 -100.30638 29425 ft 425 kts 216°
2026-04-22 03:12 24.43076 -100.33947 30176 ft 429 kts 216°
2026-04-22 03:12 24.40503 -100.35613 30534 ft 429 kts 216°
2026-04-22 03:13 24.37936 -100.37274 31025 ft 427 kts 216°
2026-04-22 03:13 24.35384 -100.38921 31538 ft 424 kts 216°
2026-04-22 03:13 24.32850 -100.40557 32051 ft 421 kts 216°
2026-04-22 03:13 24.30363 -100.42158 32569 ft 419 kts 216°
2026-04-22 03:14 24.27860 -100.43770 33080 ft 416 kts 216°
2026-04-22 03:14 24.25373 -100.45374 33585 ft 414 kts 216°
2026-04-22 03:14 24.22868 -100.46992 34096 ft 411 kts 216°
2026-04-22 03:14 24.20443 -100.48561 34525 ft 409 kts 216°
2026-04-22 03:15 24.17997 -100.50144 34923 ft 408 kts 216°
2026-04-22 03:15 24.15558 -100.51720 35300 ft 406 kts 216°
2026-04-22 03:15 24.13126 -100.53288 35666 ft 405 kts 216°
2026-04-22 03:15 24.10698 -100.54850 35999 ft 405 kts 215°
2026-04-22 03:16 24.05823 -100.57993 36105 ft 409 kts 216°
2026-04-22 03:16 24.00896 -100.61166 36106 ft 411 kts 215°
2026-04-22 03:17 23.95954 -100.64338 36101 ft 411 kts 215°
2026-04-22 03:17 23.91017 -100.67503 36095 ft 411 kts 215°
2026-04-22 03:18 23.86079 -100.70673 36094 ft 412 kts 215°
2026-04-22 03:18 23.81133 -100.73835 36090 ft 412 kts 215°
2026-04-22 03:19 23.76183 -100.76999 36091 ft 412 kts 215°
2026-04-22 03:19 23.71262 -100.80155 36091 ft 413 kts 215°
2026-04-22 03:20 23.66307 -100.83330 36095 ft 413 kts 215°
2026-04-22 03:20 23.61357 -100.86492 36099 ft 413 kts 215°
2026-04-22 03:21 23.56401 -100.89648 36107 ft 412 kts 215°
2026-04-22 03:21 23.51449 -100.92807 36114 ft 411 kts 217°
2026-04-22 03:22 23.46831 -100.96424 36122 ft 409 kts 220°
2026-04-22 03:22 23.42234 -101.00078 36123 ft 409 kts 220°
2026-04-22 03:23 23.37633 -101.03717 36130 ft 409 kts 220°
2026-04-22 03:23 23.33036 -101.07366 36135 ft 409 kts 220°
2026-04-22 03:24 23.28463 -101.10988 36131 ft 409 kts 220°
2026-04-22 03:24 23.23862 -101.14630 36131 ft 409 kts 220°
2026-04-22 03:25 23.19257 -101.18268 36133 ft 409 kts 220°
2026-04-22 03:25 23.14644 -101.21910 36131 ft 409 kts 220°
2026-04-22 03:26 23.10037 -101.25550 36130 ft 409 kts 220°
2026-04-22 03:26 23.05428 -101.29183 36131 ft 410 kts 220°
2026-04-22 03:27 23.00810 -101.32821 36130 ft 410 kts 220°
2026-04-22 03:27 22.96186 -101.36456 36133 ft 410 kts 220°
2026-04-22 03:28 22.91555 -101.40094 36132 ft 411 kts 220°
2026-04-22 03:28 22.86960 -101.43706 36129 ft 411 kts 220°
2026-04-22 03:29 22.82324 -101.47354 36130 ft 411 kts 220°
2026-04-22 03:29 22.77693 -101.50986 36123 ft 411 kts 220°
2026-04-22 03:30 22.73068 -101.54606 36119 ft 411 kts 220°
2026-04-22 03:30 22.68420 -101.58245 36110 ft 411 kts 220°
2026-04-22 03:31 22.64575 -101.61257 36109 ft 411 kts 220°
2026-04-22 03:31 22.59941 -101.64885 36105 ft 411 kts 220°
2026-04-22 03:32 22.55299 -101.68513 36100 ft 411 kts 220°
2026-04-22 03:32 22.50654 -101.72135 36094 ft 412 kts 220°
2026-04-22 03:33 22.45999 -101.75762 36088 ft 412 kts 220°
2026-04-22 03:33 22.41383 -101.79362 36082 ft 412 kts 219°
2026-04-22 03:34 22.36731 -101.82986 36074 ft 412 kts 220°
2026-04-22 03:34 22.32071 -101.86605 36071 ft 413 kts 219°
2026-04-22 03:35 22.27411 -101.90232 36066 ft 413 kts 220°
2026-04-22 03:35 22.22749 -101.93858 36066 ft 413 kts 219°
2026-04-22 03:36 22.18076 -101.97478 36063 ft 413 kts 219°
2026-04-22 03:36 22.13398 -102.01101 36059 ft 414 kts 219°
2026-04-22 03:37 22.08748 -102.04703 36057 ft 414 kts 219°
2026-04-22 03:37 22.04055 -102.08331 36057 ft 414 kts 219°
2026-04-22 03:38 21.99368 -102.11960 36073 ft 415 kts 219°
2026-04-22 03:38 21.94672 -102.15577 36136 ft 415 kts 218°
2026-04-22 03:39 21.89864 -102.18996 35941 ft 417 kts 217°
2026-04-22 03:39 21.87405 -102.20669 35729 ft 418 kts 216°
2026-04-22 03:39 21.84937 -102.22339 35497 ft 419 kts 217°
2026-04-22 03:40 21.82474 -102.24016 34831 ft 423 kts 217°
2026-04-22 03:40 21.79978 -102.25736 34049 ft 427 kts 218°
2026-04-22 03:40 21.77486 -102.27468 33559 ft 424 kts 218°
2026-04-22 03:40 21.75025 -102.29185 33061 ft 420 kts 218°
2026-04-22 03:41 21.72582 -102.30889 32559 ft 416 kts 218°
2026-04-22 03:41 21.70225 -102.32662 32051 ft 410 kts 223°
2026-04-22 03:41 21.67987 -102.34555 31515 ft 408 kts 223°
2026-04-22 03:41 21.65759 -102.36433 30994 ft 406 kts 223°
2026-04-22 03:42 21.63538 -102.38309 30465 ft 404 kts 223°
2026-04-22 03:42 21.61330 -102.40173 29865 ft 402 kts 223°
2026-04-22 03:42 21.59169 -102.41996 29327 ft 398 kts 222°
2026-04-22 03:42 21.56997 -102.43827 28789 ft 395 kts 222°
2026-04-22 03:43 21.54842 -102.45642 28260 ft 392 kts 222°
2026-04-22 03:43 21.52697 -102.47448 27741 ft 389 kts 222°
2026-04-22 03:43 21.50575 -102.49232 27227 ft 387 kts 222°
2026-04-22 03:43 21.48458 -102.51008 26729 ft 385 kts 222°
2026-04-22 03:44 21.46352 -102.52773 26243 ft 383 kts 222°
2026-04-22 03:44 21.44257 -102.54534 25771 ft 381 kts 222°
2026-04-22 03:44 21.42173 -102.56287 25316 ft 380 kts 222°
2026-04-22 03:44 21.40098 -102.58032 24879 ft 378 kts 221°
2026-04-22 03:45 21.38027 -102.59773 24440 ft 376 kts 221°
2026-04-22 03:45 21.35970 -102.61503 24143 ft 376 kts 221°
2026-04-22 03:45 21.33899 -102.63247 24052 ft 379 kts 221°
2026-04-22 03:45 21.31820 -102.64991 24077 ft 381 kts 221°
2026-04-22 03:46 21.29725 -102.66747 24079 ft 382 kts 221°
2026-04-22 03:46 21.27635 -102.68500 24081 ft 382 kts 221°
2026-04-22 03:46 21.25567 -102.70236 24080 ft 382 kts 221°
2026-04-22 03:46 21.23466 -102.72000 23693 ft 386 kts 221°
2026-04-22 03:47 21.21319 -102.73800 22737 ft 395 kts 220°
2026-04-22 03:47 21.19149 -102.75616 22081 ft 396 kts 220°
2026-04-22 03:47 21.16977 -102.77427 21521 ft 395 kts 220°
2026-04-22 03:47 21.14799 -102.79208 20984 ft 393 kts 216°
2026-04-22 03:48 21.12371 -102.80535 20484 ft 394 kts 201°
2026-04-22 03:48 21.09697 -102.81154 19981 ft 394 kts 186°
2026-04-22 03:48 21.06954 -102.81027 19475 ft 394 kts 174°
2026-04-22 03:48 21.04243 -102.80627 18963 ft 392 kts 173°
2026-04-22 03:49 21.01544 -102.80223 18469 ft 389 kts 173°
2026-04-22 03:49 20.98859 -102.79856 17999 ft 384 kts 178°
2026-04-22 03:49 20.96255 -102.80071 17741 ft 371 kts 194°
2026-04-22 03:49 20.93868 -102.80889 17492 ft 361 kts 200°
2026-04-22 03:50 20.91516 -102.81783 17241 ft 357 kts 201°
2026-04-22 03:50 20.89183 -102.82681 16993 ft 355 kts 201°
2026-04-22 03:50 20.86834 -102.83590 16741 ft 354 kts 201°
2026-04-22 03:50 20.84552 -102.84476 16500 ft 353 kts 201°
2026-04-22 03:51 20.82248 -102.85371 16255 ft 352 kts 201°
2026-04-22 03:51 20.79953 -102.86263 16007 ft 350 kts 201°
2026-04-22 03:51 20.77660 -102.87152 15772 ft 349 kts 200°
2026-04-22 03:51 20.75394 -102.88028 15383 ft 345 kts 200°
2026-04-22 03:52 20.73131 -102.88902 14923 ft 345 kts 200°
2026-04-22 03:52 20.70879 -102.89768 14457 ft 345 kts 200°
2026-04-22 03:52 20.68614 -102.90641 13983 ft 345 kts 200°
2026-04-22 03:52 20.66355 -102.91512 13481 ft 345 kts 200°
2026-04-22 03:53 20.64100 -102.92380 13002 ft 344 kts 200°
2026-04-22 03:53 20.61857 -102.93243 12626 ft 340 kts 201°
2026-04-22 03:53 20.59667 -102.94083 12495 ft 329 kts 200°
2026-04-22 03:53 20.57526 -102.94908 11780 ft 337 kts 201°
2026-04-22 03:54 20.55329 -102.95753 11204 ft 330 kts 202°
2026-04-22 03:54 20.53215 -102.96563 10925 ft 313 kts 202°
2026-04-22 03:54 20.51232 -102.97320 10866 ft 290 kts 201°
2026-04-22 03:54 20.49409 -102.98013 10877 ft 267 kts 202°
2026-04-22 03:55 20.47719 -102.98658 10735 ft 254 kts 202°
2026-04-22 03:55 20.46029 -102.99311 10143 ft 261 kts 202°
2026-04-22 03:55 20.44337 -102.99962 9710 ft 257 kts 202°
2026-04-22 03:55 20.42787 -103.00824 9308 ft 247 kts 223°
2026-04-22 03:56 20.41737 -103.02198 8972 ft 235 kts 246°
2026-04-22 03:56 20.41290 -103.03818 8761 ft 220 kts 267°
2026-04-22 03:56 20.41409 -103.05378 8672 ft 203 kts 285°
2026-04-22 03:56 20.41900 -103.06699 8629 ft 180 kts 294°
2026-04-22 03:57 20.42392 -103.07863 8627 ft 169 kts 294°
2026-04-22 03:57 20.42862 -103.08977 8574 ft 161 kts 294°
2026-04-22 03:57 20.43313 -103.10047 8444 ft 154 kts 294°
2026-04-22 03:57 20.43738 -103.11055 8280 ft 148 kts 294°
2026-04-22 03:58 20.44158 -103.12050 8115 ft 146 kts 294°
2026-04-22 03:58 20.44572 -103.13034 7952 ft 146 kts 293°
2026-04-22 03:58 20.44987 -103.14017 7788 ft 145 kts 293°
2026-04-22 03:58 20.45399 -103.14995 7634 ft 144 kts 293°
2026-04-22 03:59 20.45810 -103.15970 7461 ft 144 kts 293°
2026-04-22 03:59 20.46220 -103.16942 7310 ft 144 kts 293°
2026-04-22 03:59 20.46631 -103.17916 7151 ft 143 kts 293°
2026-04-22 03:59 20.47037 -103.18882 6992 ft 142 kts 292°
2026-04-22 04:00 20.47442 -103.19841 6837 ft 141 kts 292°
2026-04-22 04:00 20.47843 -103.20795 6692 ft 141 kts 292°
2026-04-22 04:00 20.48246 -103.21752 6516 ft 141 kts 291°
2026-04-22 04:00 20.48647 -103.22705 6359 ft 141 kts 292°
2026-04-22 04:01 20.49051 -103.23664 6215 ft 142 kts 292°
2026-04-22 04:01 20.49456 -103.24627 6045 ft 143 kts 291°
2026-04-22 04:01 20.49862 -103.25593 5864 ft 143 kts 291°
2026-04-22 04:01 20.50268 -103.26556 5664 ft 142 kts 291°
2026-04-22 04:02 20.50672 -103.27517 5454 ft 141 kts 291°
2026-04-22 04:02 20.51074 -103.28472 5248 ft 141 kts 290°
2026-04-22 04:02 20.51471 -103.29417 5048 ft 139 kts 292°
2026-04-22 04:02 20.51826 -103.30266 5028 ft 105 kts 294°
2026-04-22 04:03 20.52056 -103.30811 5026 ft 55 kts 294°
2026-04-22 04:03 20.52141 -103.31019 5031 ft 7 kts 294°
2026-04-22 04:03 20.52163 -103.31073 5030 ft 8 kts 293°
2026-04-22 04:03 20.52208 -103.31096 5032 ft 9 kts 20°
2026-04-22 04:04 20.52240 -103.31078 5031 ft 1 kts 30°
2026-04-22 04:05 20.52251 -103.31072 5031 ft 5 kts 30°
2026-04-22 04:05 20.52305 -103.31038 5030 ft 11 kts 30°
2026-04-22 04:05 20.52374 -103.30994 5031 ft 12 kts 30°
2026-04-22 04:06 20.52451 -103.30946 5030 ft 14 kts 31°
2026-04-22 04:06 20.52532 -103.30880 5027 ft 15 kts 56°
2026-04-22 04:06 20.52626 -103.30836 5029 ft 15 kts 23°
2026-04-22 04:06 20.52726 -103.30782 5029 ft 17 kts 30°
2026-04-22 04:07 20.52720 -103.30694 5028 ft 13 kts 109°
2026-04-22 04:07 20.52657 -103.30631 5029 ft 13 kts 158°
2026-04-22 04:07 20.52565 -103.30590 5027 ft 15 kts 157°
2026-04-22 04:07 20.52466 -103.30536 5029 ft 17 kts 145°
2026-04-22 04:08 20.52432 -103.30485 5028 ft 7 kts 113°
2026-04-22 04:08 20.52416 -103.30433 5029 ft 8 kts 94°
2026-04-22 04:08 20.52453 -103.30395 5029 ft 7 kts 54°
2026-04-22 04:08 20.52444 -103.30339 5029 ft 8 kts 109°
2026-04-22 04:09 20.52422 -103.30275 5025 ft 10 kts 109°
2026-04-22 04:09 20.52403 -103.30199 5029 ft 11 kts 100°
2026-04-22 04:09 20.52385 -103.30131 5029 ft 9 kts 109°
2026-04-22 04:09 20.52363 -103.30065 5025 ft 10 kts 109°
2026-04-22 04:10 20.52348 -103.30019 5026 ft 5 kts 109°
2026-04-22 04:10 20.52359 -103.30000 5026 ft 4 kts 14°
2026-04-22 04:10 20.52377 -103.29995 5029 ft 0 kts 15°
2026-04-22 04:10 20.52381 -103.29993 5029 ft 1 kts 17°